SERVIS 2 DEB, 43394

Orbit data source: Space-Track

SERVIS 2 DEB, 43394 is space debris in SSO originally from a launch on Wed, 02 Jun 2010 UTC launched from the Plesetsk Missile And Space Complex (PKMTR). Debris objects in space refer to the collection of defunct objects orbiting the Earth. Examples of debris include non-operational satellites, rocket bodies, and fragments generated from explosions, collisions, or faulty payload assembly.

Loading next visibility...
Identifier
43394, 2010-023D
Orbit
SSO
Last TLE update
14 hours ago
Origin
Manufacturer
MELCO
Mission
Spacecraft
Bus & Motor
Unknown
Mass
Unknown
Launch date (UTC)
2010-06-02 (15 years ago)
Launch vehicle
Unknown
Launch site
Plesetsk Missile And Space Complex (PKMTR)
Object type
Payload
Rocket body
Debris
Shape & HBR
Unknown
Radar Cross Section
Small (<0.1 m²)

Expand to show TLE details & history

TLE from 14 hours ago
0 SERVIS 2 DEB
1 43394U 10023D   25188.75357166  .00000632  00000-0  97809-3 0  9990
2 43394 100.5099 190.6549 0040739  77.2156 283.3526 13.55462517 50939
Epoch: 2025-07-07T18:05Z
TLE epoch observation values (Epoch: 2025-07-07T18:05:08.591Z)
Latitude
-0.00007°
Longitude
-6.58926°
Altitude
1,048.117 km
Speed
7.331 km/s
True Right ascension
12h 42m 37s
True Declination
0° 00' 00"
Sunlit
Object was in daylight at epoch
Visualization orbit readout
Latitude
38.48305°
Longitude
-14.38939°
Altitude
1,033.1 km
Speed
7.351 km/s
Apparent Right ascension
10h 32m 06s
Apparent Declination
3° 07' 27"
Sunlit
Object is in daylight
Visualization observer readout
Local Sidereal Time
20:32:39
Azimuth
320.237° NNW
Elevation
-38.992°
Doppler factor
1
Orbital elements
Apogee altitude
1,079.825 km
Perigee altitude
1,019.306 km
Semi-major axis
7,427.703 km
Eccentricity
0.00407
Inclination
100.5099°
RAAN
190.6549°
Arg. of periapsis
77.2156°
True anomaly
Unknown
Mean anomaly
283.3526°
Eccentric anomaly
Unknown
Mean motion
3.39048 °/min
Orbital period
106.18 mins
BSTAR
0.00097809
Loading maneuver chart data...
Loading SW <> Apogee altitude chart data...
Loading historical data...
Loading historical data...
Loading historical data...
Loading historical data...
Loading historical data...
Loading historical data...
Loading historical data...
Other satellites on launch #23 in the year 2010 (2010-06-02 UTC)

SERVIS 2 DEB Visibility forecast

Observer location: undefined°, undefined°

Span
Click to sort rows by Start time (UTC) header in descending order
Start Az.
Max El. time (UTC)
Max El. Az.
Max El.
End time (UTC)
End Az.
11 mins2025-07-08 12:23:56.652Z32.428° NE2025-07-08 12:29:56.652Z110.684° ESE32.786°2025-07-08 12:34:56.652Z166.684° S
9 mins2025-07-08 14:09:56.652Z348.928° N2025-07-08 14:13:56.652Z296.306° NW28.876°2025-07-08 14:18:56.652Z237.852° WSW
7 mins2025-07-08 22:36:56.652Z91.053° ESE2025-07-08 22:39:56.652Z54.889° ENE20.271°2025-07-08 22:43:56.652Z13.774° NNE
11 mins2025-07-09 00:18:56.652Z177.898° S2025-07-09 00:23:56.652Z268.56° W42.002°2025-07-09 00:29:56.652Z338.083° N
|